{"data":{"norad_id":66409,"intl_designator":"2025-256A","name":"CHUTIAN-2 A","alt_names":[],"object_type":"PAYLOAD","status":"ACTIVE","operator":null,"country":"PRC","launch_date":"2025-11-09","launch_site_code":"JSC","launch_vehicle":null,"mission":null,"orbit_class":"UNKNOWN","rcs_meters":null,"size_class":null,"mass_kg":null,"dimensions":null,"purposes":[],"wikipedia_slug":null,"has_3d_model":false,"image_url":null,"decayed_at":null,"tle_current":{"epoch":"2026-05-24T21:59:49.939008Z","epoch_age_seconds":86210,"freshness":"FRESH","line1":"1 66409U 25256A   26144.91655022  .00000363  00000+0  10460-3 0  9997","line2":"2 66409  98.2514 211.5684 0014490  47.5897 312.6521 14.50175951 28526","mean_motion":14.50175951,"eccentricity":0.001449,"inclination_deg":98.2514,"raan_deg":211.5684,"arg_perigee_deg":47.5897,"mean_anomaly_deg":312.6521,"bstar":0.0001046,"rev_number":2852,"period_min":99.298295424567,"perigee_km":714.78133802285,"apogee_km":735.36644318382,"semimajor_km":7103.2108906033,"source":"CELESTRAK","updated_at":"2026-05-25T13:38:06.204399Z"}}}